AAL2421 KPHX-KSFO

Flight info

Callsign AAL2421
Flight time N/A
Altitude 34000
Route KEENS3 HRRBR CURIV J212 DECAS PMD COREZ MAKRS SERFR SERFR4
Aircraft A20N/M-SDE2E3FGHIRWXY/LB1

Departure

Time 2026-05-05 22:05
Airport Phoenix Sky Harbor International Airport (KPHX)

Arrival

Time N/A
Airport San Francisco International Airport (KSFO)
Time Latitude Longitude Altitude Speed Heading
2026-05-05 21:35 33.43817 -111.99628 1137 ft 0 kts 234°
2026-05-05 21:52 33.43821 -111.99622 1137 ft 2 kts 234°
2026-05-05 21:52 33.43829 -111.99606 1137 ft 2 kts 254°
2026-05-05 21:52 33.43831 -111.99588 1137 ft 2 kts 270°
2026-05-05 21:53 33.43829 -111.99570 1137 ft 2 kts 288°
2026-05-05 21:53 33.43823 -111.99554 1137 ft 2 kts 305°
2026-05-05 21:53 33.43813 -111.99540 1137 ft 2 kts 323°
2026-05-05 21:53 33.43799 -111.99531 1137 ft 2 kts 340°
2026-05-05 21:54 33.43785 -111.99527 1136 ft 1 kts 356°
2026-05-05 21:54 33.43779 -111.99527 1136 ft 1 kts
2026-05-05 21:54 33.43777 -111.99527 1136 ft 0 kts
2026-05-05 21:58 33.43780 -111.99527 1136 ft 0 kts 359°
2026-05-05 21:58 33.43790 -111.99527 1136 ft 2 kts 359°
2026-05-05 21:58 33.43824 -111.99528 1137 ft 5 kts 359°
2026-05-05 21:58 33.43865 -111.99527 1137 ft 6 kts
2026-05-05 21:59 33.43899 -111.99496 1137 ft 7 kts 69°
2026-05-05 21:59 33.43903 -111.99432 1138 ft 8 kts 90°
2026-05-05 21:59 33.43903 -111.99355 1138 ft 10 kts 90°
2026-05-05 21:59 33.43899 -111.99265 1138 ft 9 kts 109°
2026-05-05 22:00 33.43842 -111.99228 1137 ft 10 kts 178°
2026-05-05 22:00 33.43762 -111.99228 1137 ft 12 kts 180°
2026-05-05 22:00 33.43671 -111.99230 1135 ft 13 kts 181°
2026-05-05 22:00 33.43571 -111.99229 1135 ft 14 kts 180°
2026-05-05 22:01 33.43465 -111.99229 1134 ft 13 kts 180°
2026-05-05 22:01 33.43373 -111.99230 1133 ft 13 kts 180°
2026-05-05 22:01 33.43287 -111.99229 1133 ft 11 kts 179°
2026-05-05 22:01 33.43217 -111.99249 1132 ft 10 kts 219°
2026-05-05 22:02 33.43198 -111.99271 1132 ft 0 kts 227°
2026-05-05 22:02 33.43196 -111.99274 1132 ft 1 kts 227°
2026-05-05 22:03 33.43176 -111.99300 1132 ft 6 kts 227°
2026-05-05 22:03 33.43140 -111.99345 1131 ft 8 kts 226°
2026-05-05 22:03 33.43106 -111.99403 1131 ft 8 kts 255°
2026-05-05 22:03 33.43104 -111.99453 1131 ft 0 kts 269°
2026-05-05 22:04 33.43104 -111.99606 1131 ft 53 kts 270°
2026-05-05 22:04 33.43107 -112.00333 1131 ft 120 kts 268°
2026-05-05 22:04 33.43109 -112.01559 1203 ft 166 kts 269°
2026-05-05 22:05 33.43131 -112.02994 1690 ft 178 kts 270°
2026-05-05 22:05 33.43188 -112.04405 2638 ft 167 kts 271°
2026-05-05 22:05 33.43243 -112.05765 3296 ft 172 kts 271°
2026-05-05 22:05 33.43187 -112.07243 3823 ft 187 kts 258°
2026-05-05 22:06 33.42690 -112.08723 4425 ft 199 kts 241°
2026-05-05 22:06 33.41980 -112.10198 4997 ft 215 kts 244°
2026-05-05 22:06 33.41375 -112.11925 5552 ft 234 kts 250°
2026-05-05 22:06 33.40808 -112.13814 6136 ft 252 kts 250°
2026-05-05 22:07 33.40204 -112.15841 6768 ft 269 kts 250°
2026-05-05 22:07 33.39573 -112.17957 7672 ft 274 kts 252°
2026-05-05 22:07 33.39244 -112.20199 8632 ft 278 kts 267°
2026-05-05 22:07 33.39403 -112.22487 9540 ft 282 kts 278°
2026-05-05 22:08 33.39745 -112.24789 10415 ft 287 kts 278°
2026-05-05 22:08 33.40116 -112.27158 11042 ft 300 kts 278°
2026-05-05 22:08 33.40506 -112.29691 11587 ft 315 kts 278°
2026-05-05 22:08 33.40899 -112.32286 12417 ft 320 kts 278°
2026-05-05 22:09 33.41288 -112.34871 13317 ft 322 kts 277°
2026-05-05 22:09 33.41684 -112.37515 14203 ft 324 kts 277°
2026-05-05 22:09 33.42078 -112.40169 15035 ft 326 kts 277°
2026-05-05 22:09 33.42474 -112.42840 15857 ft 329 kts 277°
2026-05-05 22:10 33.42870 -112.45531 16686 ft 330 kts 277°
2026-05-05 22:10 33.43267 -112.48236 17447 ft 333 kts 277°
2026-05-05 22:10 33.43664 -112.50945 18186 ft 336 kts 277°
2026-05-05 22:10 33.44069 -112.53701 18940 ft 338 kts 277°
2026-05-05 22:11 33.44479 -112.56475 19733 ft 339 kts 276°
2026-05-05 22:11 33.44812 -112.59232 20519 ft 338 kts 272°
2026-05-05 22:11 33.45004 -112.62015 21307 ft 336 kts 269°
2026-05-05 22:11 33.45067 -112.64799 22020 ft 336 kts 268°
2026-05-05 22:12 33.45105 -112.67592 22712 ft 338 kts 266°
2026-05-05 22:12 33.45142 -112.70395 23441 ft 338 kts 266°
2026-05-05 22:12 33.45179 -112.73199 24128 ft 338 kts 266°
2026-05-05 22:12 33.45226 -112.75998 24698 ft 340 kts 266°
2026-05-05 22:13 33.45384 -112.78847 25321 ft 342 kts 269°
2026-05-05 22:13 33.45679 -112.81626 25885 ft 344 kts 272°
2026-05-05 22:13 33.46132 -112.84460 26427 ft 347 kts 274°
2026-05-05 22:13 33.46653 -112.87279 26954 ft 347 kts 274°
2026-05-05 22:14 33.47174 -112.90065 27388 ft 349 kts 273°
2026-05-05 22:14 33.47706 -112.92943 27823 ft 351 kts 273°
2026-05-05 22:14 33.48230 -112.95771 28318 ft 351 kts 272°
2026-05-05 22:14 33.48763 -112.98610 28825 ft 350 kts 271°
2026-05-05 22:15 33.49292 -113.01438 29358 ft 347 kts 271°
2026-05-05 22:15 33.49804 -113.04205 29977 ft 342 kts 271°
2026-05-05 22:15 33.50318 -113.06976 30523 ft 340 kts 271°
2026-05-05 22:15 33.50820 -113.09718 30944 ft 341 kts 271°
2026-05-05 22:16 33.51336 -113.12519 31395 ft 340 kts 272°
2026-05-05 22:16 33.51854 -113.15331 31814 ft 340 kts 271°
2026-05-05 22:16 33.52363 -113.18092 32196 ft 341 kts 271°
2026-05-05 22:16 33.52869 -113.20842 32562 ft 341 kts 272°
2026-05-05 22:17 33.53380 -113.23626 32917 ft 342 kts 272°
2026-05-05 22:17 33.53893 -113.26416 33196 ft 344 kts 272°
2026-05-05 22:17 33.54410 -113.29238 33445 ft 347 kts 272°
2026-05-05 22:17 33.54926 -113.32070 33715 ft 350 kts 272°
2026-05-05 22:18 33.55450 -113.34927 33877 ft 353 kts 273°
2026-05-05 22:18 33.56504 -113.40658 33811 ft 353 kts 273°
2026-05-05 22:19 33.57552 -113.46394 33867 ft 357 kts 273°